ANA8475 RJAA-RKSI

Flight info

Callsign ANA8475
Flight time N/A
Altitude 40000
Route ENPAR Y16 SAPRA Y685 GUKDO GUKDO3C
Aircraft B77L/H-SDE1E2E3FGHIJ2J3J4J5M1RWXY/LB1D1

Departure

Time N/A
Airport Narita International Airport (RJAA)

Arrival

Time 2026-05-06 14:30
Airport Incheon International Airport (RKSI)
Time Latitude Longitude Altitude Speed Heading
2026-05-06 13:20 35.86261 131.44872 40045 ft 446 kts 268°
2026-05-06 13:21 35.86245 131.44562 40052 ft 446 kts 268°
2026-05-06 13:22 35.85859 131.36924 40059 ft 446 kts 268°
2026-05-06 13:22 35.85468 131.29293 40063 ft 446 kts 268°
2026-05-06 13:23 35.85071 131.21647 40061 ft 447 kts 268°
2026-05-06 13:23 35.84670 131.14011 40062 ft 447 kts 268°
2026-05-06 13:24 35.84263 131.06363 40064 ft 447 kts 268°
2026-05-06 13:24 35.83852 130.98718 40061 ft 446 kts 268°
2026-05-06 13:25 35.83439 130.91138 40057 ft 446 kts 268°
2026-05-06 13:25 35.83021 130.83526 40056 ft 446 kts 268°
2026-05-06 13:26 35.82606 130.75908 40058 ft 445 kts 270°
2026-05-06 13:26 35.82858 130.68330 40056 ft 442 kts 279°
2026-05-06 13:27 35.83820 130.60857 40061 ft 441 kts 281°
2026-05-06 13:27 35.84806 130.53375 40056 ft 441 kts 280°
2026-05-06 13:28 35.85765 130.45898 40058 ft 441 kts 280°
2026-05-06 13:28 35.86705 130.38425 40054 ft 441 kts 280°
2026-05-06 13:29 35.87633 130.30995 40053 ft 441 kts 280°
2026-05-06 13:29 35.88562 130.23517 40049 ft 441 kts 280°
2026-05-06 13:30 35.89487 130.16035 40047 ft 441 kts 280°
2026-05-06 13:30 35.90407 130.08562 40044 ft 440 kts 280°
2026-05-06 13:31 35.91321 130.01090 40041 ft 440 kts 279°
2026-05-06 13:31 35.92229 129.93638 40041 ft 439 kts 279°
2026-05-06 13:32 35.93133 129.86176 40040 ft 439 kts 279°
2026-05-06 13:32 35.94028 129.78729 40039 ft 439 kts 279°
2026-05-06 13:33 35.94911 129.71278 40036 ft 439 kts 279°
2026-05-06 13:33 35.95783 129.63878 40037 ft 439 kts 279°
2026-05-06 13:34 35.96659 129.56425 40035 ft 439 kts 279°
2026-05-06 13:34 35.97993 129.49105 40042 ft 438 kts 290°
2026-05-06 13:35 36.00610 129.42317 40034 ft 439 kts 302°
2026-05-06 13:35 36.04130 129.36141 40040 ft 439 kts 304°
2026-05-06 13:36 36.07732 129.30039 40041 ft 439 kts 304°
2026-05-06 13:36 36.11288 129.23925 40046 ft 437 kts 304°
2026-05-06 13:37 36.14804 129.17811 40048 ft 435 kts 303°
2026-05-06 13:37 36.18291 129.11724 40038 ft 433 kts 303°
2026-05-06 13:38 36.21747 129.05681 40041 ft 431 kts 303°
2026-05-06 13:38 36.25198 128.99636 40046 ft 429 kts 303°
2026-05-06 13:39 36.28631 128.93614 40040 ft 427 kts 303°
2026-05-06 13:39 36.32055 128.87599 40049 ft 426 kts 303°
2026-05-06 13:40 36.35469 128.81594 40040 ft 425 kts 303°
2026-05-06 13:40 36.38880 128.75596 40039 ft 425 kts 302°
2026-05-06 13:41 36.42280 128.69606 40039 ft 424 kts 302°
2026-05-06 13:41 36.45680 128.63605 40036 ft 424 kts 302°
2026-05-06 13:42 36.49048 128.57648 40031 ft 424 kts 302°
2026-05-06 13:42 36.52432 128.51652 40033 ft 423 kts 302°
2026-05-06 13:42 36.54050 128.48781 39504 ft 432 kts 302°
2026-05-06 13:43 36.55774 128.45719 38966 ft 429 kts 302°
2026-05-06 13:43 36.57470 128.42708 37908 ft 418 kts 302°
2026-05-06 13:43 36.59115 128.39785 37138 ft 409 kts 302°
2026-05-06 13:43 36.60749 128.36876 36303 ft 411 kts 301°
2026-05-06 13:44 36.62387 128.33954 35463 ft 414 kts 301°
2026-05-06 13:44 36.64047 128.31003 34541 ft 418 kts 301°
2026-05-06 13:44 36.65745 128.28027 33500 ft 424 kts 301°
2026-05-06 13:44 36.67472 128.25020 32618 ft 426 kts 302°
2026-05-06 13:45 36.69192 128.22024 31854 ft 425 kts 301°
2026-05-06 13:45 36.72611 128.16038 30403 ft 422 kts 301°
2026-05-06 13:45 36.74312 128.13052 29610 ft 422 kts 301°
2026-05-06 13:46 36.76008 128.10075 28825 ft 420 kts 301°
2026-05-06 13:46 36.77690 128.07121 28106 ft 417 kts 301°
2026-05-06 13:46 36.79361 128.04181 27396 ft 414 kts 301°
2026-05-06 13:46 36.81024 128.01256 26690 ft 412 kts 302°
2026-05-06 13:47 36.82660 127.98375 26021 ft 409 kts 301°
2026-05-06 13:47 36.84301 127.95481 25352 ft 407 kts 302°
2026-05-06 13:47 36.85924 127.92604 24693 ft 405 kts 302°
2026-05-06 13:47 36.87536 127.89727 24013 ft 403 kts 302°
2026-05-06 13:48 36.89138 127.86864 23312 ft 402 kts 302°
2026-05-06 13:48 36.90739 127.84003 22584 ft 399 kts 302°
2026-05-06 13:48 36.92324 127.81171 21912 ft 396 kts 302°
2026-05-06 13:48 36.93898 127.78364 21288 ft 392 kts 302°
2026-05-06 13:49 36.95463 127.75590 20662 ft 390 kts 302°
2026-05-06 13:49 36.97024 127.72828 20036 ft 387 kts 302°
2026-05-06 13:49 36.98575 127.70086 19435 ft 384 kts 302°
2026-05-06 13:49 37.00114 127.67359 18811 ft 383 kts 302°
2026-05-06 13:50 37.01643 127.64639 18185 ft 382 kts 302°
2026-05-06 13:50 37.03154 127.61947 17956 ft 370 kts 302°
2026-05-06 13:50 37.04600 127.59354 17790 ft 359 kts 301°
2026-05-06 13:50 37.06032 127.56773 17695 ft 363 kts 301°
2026-05-06 13:51 37.07485 127.54146 17584 ft 370 kts 302°
2026-05-06 13:51 37.08955 127.51494 17459 ft 371 kts 302°
2026-05-06 13:51 37.10406 127.48884 17342 ft 369 kts 302°
2026-05-06 13:51 37.11869 127.46248 17230 ft 367 kts 302°
2026-05-06 13:52 37.13323 127.43624 17119 ft 366 kts 302°
2026-05-06 13:52 37.14779 127.41009 17006 ft 364 kts 302°
2026-05-06 13:52 37.16456 127.38659 16818 ft 362 kts 314°
2026-05-06 13:52 37.18196 127.36363 16558 ft 366 kts 304°
2026-05-06 13:53 37.19630 127.33735 16431 ft 360 kts 299°
2026-05-06 13:53 37.20901 127.31163 16207 ft 330 kts 298°
2026-05-06 13:53 37.22064 127.28820 15718 ft 304 kts 299°
2026-05-06 13:53 37.23168 127.26643 15055 ft 290 kts 299°
2026-05-06 13:54 37.24268 127.24520 14327 ft 294 kts 300°
2026-05-06 13:54 37.25382 127.22410 14028 ft 291 kts 300°
2026-05-06 13:54 37.26503 127.20315 13689 ft 287 kts 301°
2026-05-06 13:54 37.27615 127.18250 13308 ft 284 kts 301°
2026-05-06 13:55 37.28722 127.16202 13072 ft 284 kts 301°
2026-05-06 13:55 37.29842 127.14131 12998 ft 286 kts 301°
2026-05-06 13:55 37.30957 127.12077 12999 ft 282 kts 301°
2026-05-06 13:55 37.32057 127.10044 13000 ft 282 kts 301°
2026-05-06 13:56 37.32791 127.08687 13006 ft 284 kts 301°
2026-05-06 13:56 37.33905 127.06629 12995 ft 285 kts 301°
2026-05-06 13:56 37.35378 127.03906 12997 ft 284 kts 301°
2026-05-06 13:56 37.36490 127.01851 12996 ft 284 kts 301°
2026-05-06 13:57 37.37604 126.99795 13003 ft 285 kts 301°
2026-05-06 13:57 37.38717 126.97731 13006 ft 285 kts 301°
2026-05-06 13:57 37.39837 126.95662 12998 ft 284 kts 300°
2026-05-06 13:57 37.40438 126.94186 12989 ft 279 kts 286°
2026-05-06 13:58 37.40697 126.91790 12968 ft 277 kts 269°
2026-05-06 13:58 37.40374 126.89430 12656 ft 279 kts 252°
2026-05-06 13:58 37.39905 126.87875 12352 ft 279 kts 250°
2026-05-06 13:58 37.39172 126.85616 12134 ft 280 kts 249°
2026-05-06 13:59 37.38425 126.83338 12012 ft 280 kts 249°
2026-05-06 13:59 37.37689 126.81089 11999 ft 275 kts 249°
2026-05-06 13:59 37.36973 126.78867 11969 ft 275 kts 250°
2026-05-06 13:59 37.36252 126.76624 11996 ft 278 kts 250°
2026-05-06 14:00 37.35525 126.74350 12001 ft 281 kts 250°
2026-05-06 14:00 37.34796 126.72067 11984 ft 282 kts 250°
2026-05-06 14:00 37.34065 126.69775 11990 ft 283 kts 250°
2026-05-06 14:00 37.33335 126.67483 11980 ft 282 kts 250°
2026-05-06 14:01 37.32608 126.65201 11987 ft 280 kts 250°
2026-05-06 14:01 37.31885 126.62930 11992 ft 279 kts 250°
2026-05-06 14:01 37.31164 126.60667 11990 ft 279 kts 250°
2026-05-06 14:01 37.30443 126.58404 11990 ft 278 kts 250°
2026-05-06 14:02 37.29724 126.56150 11987 ft 278 kts 250°
2026-05-06 14:02 37.29005 126.53897 11992 ft 278 kts 250°
2026-05-06 14:02 37.28293 126.51668 11993 ft 279 kts 250°
2026-05-06 14:02 37.27560 126.49375 11993 ft 280 kts 250°
2026-05-06 14:03 37.26821 126.47055 11973 ft 294 kts 250°
2026-05-06 14:03 37.26069 126.44714 11952 ft 284 kts 249°
2026-05-06 14:03 37.25345 126.42463 11824 ft 273 kts 250°
2026-05-06 14:03 37.24645 126.40282 11519 ft 267 kts 250°
2026-05-06 14:04 37.23953 126.38126 11181 ft 265 kts 249°
2026-05-06 14:04 37.23265 126.35985 10934 ft 264 kts 249°
2026-05-06 14:04 37.22796 126.33796 10697 ft 261 kts 268°
2026-05-06 14:04 37.22890 126.31513 10502 ft 264 kts 274°
2026-05-06 14:05 37.23024 126.29193 10262 ft 268 kts 274°
2026-05-06 14:05 37.23149 126.26857 10045 ft 268 kts 273°
2026-05-06 14:05 37.23270 126.24521 9806 ft 268 kts 273°
2026-05-06 14:05 37.23389 126.22194 9552 ft 267 kts 273°
2026-05-06 14:06 37.23651 126.19934 9312 ft 258 kts 289°
2026-05-06 14:06 37.24567 126.18046 9103 ft 251 kts 309°
2026-05-06 14:06 37.25861 126.16620 8892 ft 244 kts 320°
2026-05-06 14:06 37.27345 126.15683 8667 ft 240 kts 346°
2026-05-06 14:07 37.28991 126.15761 8493 ft 246 kts 13°
2026-05-06 14:07 37.30526 126.16741 8310 ft 252 kts 39°
2026-05-06 14:07 37.31675 126.18409 8103 ft 255 kts 53°
2026-05-06 14:07 37.32691 126.20254 7892 ft 258 kts 54°
2026-05-06 14:08 37.33713 126.22118 7659 ft 257 kts 54°
2026-05-06 14:08 37.34726 126.23938 7434 ft 251 kts 54°
2026-05-06 14:08 37.35717 126.25717 7238 ft 247 kts 54°
2026-05-06 14:08 37.36708 126.27478 7052 ft 247 kts 54°
2026-05-06 14:09 37.37708 126.29245 6873 ft 248 kts 54°
2026-05-06 14:09 37.38712 126.31014 6673 ft 248 kts 52°
2026-05-06 14:09 37.39983 126.32416 6430 ft 244 kts 21°
2026-05-06 14:09 37.41614 126.32762 6235 ft 236 kts 349°
2026-05-06 14:10 37.43150 126.32140 6010 ft 230 kts 326°
2026-05-06 14:10 37.44481 126.31046 5635 ft 228 kts 320°
2026-05-06 14:10 37.45770 126.29877 5228 ft 229 kts 319°
2026-05-06 14:10 37.47053 126.28689 4863 ft 229 kts 319°
2026-05-06 14:11 37.48344 126.27512 4469 ft 228 kts 319°
2026-05-06 14:11 37.49633 126.26349 4106 ft 227 kts 319°
2026-05-06 14:11 37.50921 126.25193 3725 ft 227 kts 319°
2026-05-06 14:11 37.52208 126.24037 3389 ft 227 kts 318°
2026-05-06 14:12 37.53474 126.22901 3054 ft 225 kts 319°
2026-05-06 14:12 37.54747 126.21763 3007 ft 224 kts 318°
2026-05-06 14:12 37.56028 126.20613 2996 ft 227 kts 318°
2026-05-06 14:12 37.57281 126.19433 2965 ft 219 kts 308°
2026-05-06 14:13 37.58008 126.17837 2995 ft 208 kts 278°
2026-05-06 14:13 37.58068 126.16048 2997 ft 204 kts 256°
2026-05-06 14:13 37.57559 126.14402 2970 ft 201 kts 233°
2026-05-06 14:13 37.56548 126.13226 2977 ft 198 kts 210°
2026-05-06 14:14 37.55239 126.12736 2975 ft 198 kts 187°
2026-05-06 14:14 37.53865 126.12880 2990 ft 203 kts 169°
2026-05-06 14:14 37.52602 126.13756 3001 ft 211 kts 149°
2026-05-06 14:14 37.51421 126.14860 3002 ft 216 kts 150°
2026-05-06 14:15 37.50189 126.15995 2975 ft 216 kts 150°
2026-05-06 14:15 37.48992 126.17095 3003 ft 216 kts 149°
2026-05-06 14:15 37.47793 126.18239 2967 ft 216 kts 141°
2026-05-06 14:15 37.47002 126.19880 3000 ft 227 kts 111°
2026-05-06 14:16 37.46899 126.21902 2997 ft 238 kts 83°
2026-05-06 14:16 37.47573 126.23819 2986 ft 244 kts 51°
2026-05-06 14:16 37.48929 126.25051 3000 ft 242 kts 15°
2026-05-06 14:16 37.50558 126.25181 2999 ft 233 kts 341°
2026-05-06 14:17 37.51998 126.24370 3006 ft 225 kts 321°
2026-05-06 14:17 37.53284 126.23226 3000 ft 227 kts 317°
2026-05-06 14:17 37.54558 126.22037 2978 ft 228 kts 317°
2026-05-06 14:17 37.55838 126.20847 2998 ft 229 kts 317°
2026-05-06 14:18 37.57112 126.19647 2976 ft 224 kts 312°
2026-05-06 14:18 37.57942 126.18125 2993 ft 208 kts 281°
2026-05-06 14:18 37.58088 126.16367 2996 ft 200 kts 259°
2026-05-06 14:18 37.57686 126.14726 2971 ft 196 kts 237°
2026-05-06 14:19 37.56786 126.13471 2995 ft 195 kts 215°
2026-05-06 14:19 37.55530 126.12826 2979 ft 199 kts 192°
2026-05-06 14:19 37.54134 126.12851 2996 ft 204 kts 174°
2026-05-06 14:19 37.52835 126.13604 2993 ft 209 kts 150°
2026-05-06 14:20 37.50485 126.15789 2975 ft 217 kts 150°
2026-05-06 14:20 37.49267 126.16907 2999 ft 216 kts 149°
2026-05-06 14:20 37.48059 126.18024 2976 ft 215 kts 147°
2026-05-06 14:21 37.47157 126.19534 2999 ft 224 kts 116°
2026-05-06 14:21 37.46915 126.21500 2997 ft 235 kts 89°
2026-05-06 14:21 37.47433 126.23470 2984 ft 242 kts 57°
2026-05-06 14:21 37.48674 126.24869 3003 ft 242 kts 22°
2026-05-06 14:22 37.50285 126.25220 3004 ft 234 kts 347°
2026-05-06 14:22 37.51777 126.24542 2998 ft 226 kts 323°
2026-05-06 14:22 37.53073 126.23424 3006 ft 227 kts 317°
2026-05-06 14:22 37.54346 126.22236 2985 ft 229 kts 317°
2026-05-06 14:23 37.55631 126.21041 2999 ft 230 kts 317°
2026-05-06 14:23 37.56919 126.19851 2985 ft 228 kts 319°
2026-05-06 14:23 37.58408 126.19194 2976 ft 235 kts 358°
2026-05-06 14:23 37.59942 126.19883 2995 ft 241 kts 41°
2026-05-06 14:24 37.60831 126.21654 2999 ft 240 kts 78°
2026-05-06 14:24 37.61194 126.23644 2982 ft 225 kts 78°
2026-05-06 14:24 37.61681 126.25457 2996 ft 213 kts 70°
2026-05-06 14:24 37.62323 126.27083 3000 ft 211 kts 62°
2026-05-06 14:25 37.63065 126.28669 2980 ft 207 kts 70°
2026-05-06 14:25 37.63175 126.30384 2985 ft 190 kts 113°
2026-05-06 14:25 37.62476 126.31615 2927 ft 163 kts 154°
2026-05-06 14:25 37.61529 126.32313 2665 ft 154 kts 155°
2026-05-06 14:26 37.60648 126.33076 2636 ft 156 kts 154°
2026-05-06 14:26 37.59747 126.33872 2609 ft 159 kts 153°
2026-05-06 14:26 37.58874 126.34656 2601 ft 148 kts 154°
2026-05-06 14:26 37.58056 126.35388 2613 ft 143 kts 154°
2026-05-06 14:27 37.57242 126.36114 2602 ft 144 kts 154°
2026-05-06 14:27 37.56421 126.36847 2534 ft 145 kts 153°
2026-05-06 14:27 37.55586 126.37593 2206 ft 149 kts 153°
2026-05-06 14:27 37.54739 126.38352 1682 ft 149 kts 154°
2026-05-06 14:28 37.53933 126.39073 1388 ft 133 kts 152°
2026-05-06 14:28 37.53151 126.39772 1229 ft 141 kts 150°
2026-05-06 14:28 37.52347 126.40482 1013 ft 143 kts 150°
2026-05-06 14:28 37.51526 126.41218 866 ft 144 kts 147°
2026-05-06 14:29 37.50696 126.41955 660 ft 146 kts 146°
2026-05-06 14:29 37.49867 126.42706 456 ft 146 kts 145°
2026-05-06 14:29 37.49042 126.43438 236 ft 143 kts 144°
2026-05-06 14:29 37.48255 126.44136 39 ft 132 kts 144°
2026-05-06 14:30 37.47618 126.44706 37 ft 91 kts 145°
2026-05-06 14:30 37.47209 126.45072 37 ft 63 kts 146°
2026-05-06 14:30 37.46881 126.45363 37 ft 53 kts 141°
2026-05-06 14:30 37.46697 126.45663 37 ft 24 kts 114°
2026-05-06 14:31 37.46702 126.45779 36 ft 10 kts 34°
2026-05-06 14:31 37.46774 126.45764 37 ft 12 kts 329°
2026-05-06 14:31 37.46849 126.45700 37 ft 14 kts 324°
2026-05-06 14:31 37.46950 126.45609 37 ft 20 kts 324°
2026-05-06 14:32 37.47069 126.45503 37 ft 20 kts 325°
2026-05-06 14:32 37.47168 126.45480 37 ft 16 kts 35°
2026-05-06 14:32 37.47188 126.45507 37 ft 0 kts 49°
2026-05-06 14:33 37.47201 126.45528 37 ft 8 kts 54°
2026-05-06 14:33 37.47239 126.45598 37 ft 11 kts 55°
2026-05-06 14:33 37.47287 126.45681 37 ft 13 kts 54°
2026-05-06 14:33 37.47343 126.45777 37 ft 14 kts 54°
2026-05-06 14:34 37.47403 126.45886 37 ft 16 kts 55°
2026-05-06 14:34 37.47471 126.46007 37 ft 18 kts 54°
2026-05-06 14:34 37.47544 126.46134 37 ft 15 kts 54°
2026-05-06 14:34 37.47604 126.46170 37 ft 10 kts 344°
2026-05-06 14:35 37.47659 126.46127 37 ft 5 kts 324°
2026-05-06 14:35 37.47661 126.46125 35 ft 0 kts 324°